KI5QCM-13 Weather Reports


time (UTC)temp
C
wind
direction
speed
KPH
gust
KPH
rain 1hr
cm
rain 24hr
cm
rain mn
cm
humidity
%
barometer
mb
20260906194119 35 238 16.1 27.4 0.00 0.00 0.00 52 1012.3
20260906193055 38 14 0.0 1.6 0.00 0.00 0.00 38 1012.3
20260906192103 38 185 3.2 4.8 0.00 0.00 0.00 38 1012.3
20260906191023 38 207 1.6 3.2 0.00 0.00 0.00 38 1012.2
20260906190031 38 233 4.8 9.7 0.00 0.00 0.00 37 1012.4
20260906185055 38 207 4.8 8.0 0.00 0.00 0.00 38 1012.4
20260906184103 39 172 3.2 8.0 0.00 0.00 0.00 37 1012.6
20260906183023 38 32 4.8 8.0 0.00 0.00 0.00 39 1012.7
20260906182118 40 236 3.2 8.0 0.00 0.00 0.00 36 1013.0
20260906181023 39 300 1.6 4.8 0.00 0.00 0.00 37 1013.1
20260906180036 41 114 3.2 8.0 0.00 0.00 0.00 35 1013.4
20260906175055 39 347 0.0 4.8 0.00 0.00 0.00 38 1013.6
20260906174047 39 204 3.2 9.7 0.00 0.00 0.00 38 1013.9
20260906173111 38 166 3.2 8.0 0.00 0.00 0.00 40 1014.0
20260906172031 38 244 6.4 11.3 0.00 0.00 0.00 40 1014.1
20260906171039 39 179 3.2 8.0 0.00 0.00 0.00 39 1014.3
20260906170047 39 210 1.6 4.8 0.00 0.00 0.00 40 1014.6
20260906165111 38 157 3.2 4.8 0.00 0.00 0.00 40 1014.5
20260906164031 37 230 3.2 4.8 0.00 0.00 0.00 40 1014.7
20260906163055 38 85 1.6 3.2 0.00 0.00 0.00 41 1014.6
20260906162119 37 171 1.6 3.2 0.00 0.00 0.00 43 1014.8
20260906161038 36 222 1.6 4.8 0.00 0.00 0.00 45 1014.7
20260906160103 36 178 1.6 4.8 0.00 0.00 0.00 46 1014.7
20260906155023 36 178 1.6 3.2 0.00 0.00 0.00 49 1014.6
20260906154047 35 198 1.6 3.2 0.00 0.00 0.00 48 1014.7
20260906153111 35 251 1.6 4.8 0.00 0.00 0.00 50 1014.7
20260906152119 35 155 3.2 3.2 0.00 0.00 0.00 51 1014.6
20260906151023 34 157 0.0 1.6 0.00 0.00 0.00 53 1014.6
20260906150031 33 175 0.0 3.2 0.00 0.00 0.00 55 1014.5
20260906145055 32 159 1.6 3.2 0.00 0.00 0.00 57 1014.5
20260906144119 32 124 1.6 1.6 0.00 0.00 0.00 58 1014.5
20260906143039 32 181 1.6 3.2 0.00 0.00 0.00 59 1014.5
20260906142103 31 125 1.6 3.2 0.00 0.00 0.00 61 1014.5
20260906141111 30 105 0.0 1.6 0.00 0.00 0.00 64 1014.5
20260906140031 29 108 0.0 1.6 0.00 0.00 0.00 67 1014.3
20260906135055 28 88 0.0 1.6 0.00 0.00 0.00 72 1014.3
20260906134120 27 93 0.0 1.6 0.00 0.00 0.00 74 1014.2
20260906133023 26 99 0.0 1.6 0.00 0.00 0.00 79 1014.1
20260906132047 26 100 0.0 1.6 0.00 0.00 0.00 82 1014.1
20260906131111 24 0.0 0.0 0.00 0.00 0.00 87 1013.9
20260906130031 23 0.0 0.0 0.00 0.00 0.00 90 1013.8
20260906125039 23 0.0 0.0 0.00 0.00 0.00 92 1013.6
20260906124103 22 0.0 0.0 0.00 0.00 0.00 92 1013.6
20260906123023 22 0.0 0.0 0.00 0.00 0.00 93 1013.4
20260906122048 22 0.0 0.0 0.00 0.00 0.00 93 1013.3
20260906121111 22 0.0 0.0 0.00 0.00 0.00 93 1013.3
20260906120031 22 0.0 0.0 0.00 0.00 0.00 93 1013.3
20260906115055 22 0.0 0.0 0.00 0.00 0.00 92 1013.3
20260906114103 22 0.0 0.0 0.00 0.00 0.00 92 1013.3
20260906113111 22 115 0.0 1.6 0.00 0.00 0.00 91 1013.2
20260906112031 22 46 0.0 1.6 0.00 0.00 0.00 90 1013.3
20260906111055 22 0.0 0.0 0.00 0.00 0.00 91 1013.2
20260906110119 23 97 0.0 1.6 0.00 0.00 0.00 90 1013.1
20260906105023 23 0.0 0.0 0.00 0.00 0.00 89 1013.2
20260906104047 23 168 0.0 1.6 0.00 0.00 0.00 89 1013.5
20260906103111 23 0.0 0.0 0.00 0.00 0.00 88 1013.2
20260906102031 23 86 0.0 1.6 0.00 0.00 0.00 88 1013.3
20260906101055 23 0.0 0.0 0.00 0.00 0.00 88 1013.3
20260906100119 23 0.0 0.0 0.00 0.00 0.00 88 1013.2
20260906095023 23 0.0 0.0 0.00 0.00 0.00 87 1013.0
20260906094047 23 0.0 0.0 0.00 0.00 0.00 87 1013.0
20260906093111 23 84 0.0 1.6 0.00 0.00 0.00 87 1013.0
20260906092119 23 63 0.0 1.6 0.00 0.00 0.00 86 1012.8
20260906091039 23 93 0.0 1.6 0.00 0.00 0.00 86 1012.8
20260906090103 24 123 0.0 1.6 0.00 0.00 0.00 85 1012.9
20260906085024 24 59 0.0 1.6 0.00 0.00 0.00 84 1012.9
20260906084031 24 83 0.0 1.6 0.00 0.00 0.00 84 1012.8
20260906083055 23 175 1.6 4.8 0.00 0.00 0.00 85 1012.8
20260906082120 23 0.0 0.0 0.00 0.00 0.00 88 1012.6
20260906081039 23 0.0 0.0 0.00 0.00 0.00 87 1012.4
20260906080048 23 0.0 0.0 0.00 0.00 0.00 86 1012.4
20260906075111 23 0.0 0.0 0.00 0.00 0.00 86 1012.5
20260906074032 23 0.0 0.0 0.00 0.00 0.00 84 1012.4
20260906073056 23 0.0 0.0 0.00 0.00 0.00 85 1012.5
20260906072048 23 0.0 0.0 0.00 0.00 0.00 85 1012.5
20260906071055 23 0.0 0.0 0.00 0.00 0.00 84 1012.5
20260906070120 23 0.0 0.0 0.00 0.00 0.00 83 1012.4
20260906065040 23 0.0 0.0 0.00 0.00 0.00 83 1012.5
20260906064104 23 0.0 0.0 0.00 0.00 0.00 83 1012.6
20260906063111 23 0.0 0.0 0.00 0.00 0.00 83 1012.6
20260906062032 23 0.0 0.0 0.00 0.00 0.00 83 1012.5
20260906061056 24 0.0 0.0 0.00 0.00 0.00 83 1012.4
20260906060120 24 0.0 0.0 0.00 0.00 0.00 83 1012.4
20260906055040 24 0.0 0.0 0.00 0.00 0.00 81 1012.5
20260906054104 24 0.0 0.0 0.00 0.00 0.00 81 1012.6
20260906053112 24 0.0 0.0 0.00 0.00 0.00 81 1012.6
20260906052032 24 0.0 0.0 0.00 0.00 0.00 80 1012.7
20260906051040 25 0.0 0.0 0.00 0.00 0.00 79 1012.5
20260906050105 25 0.0 0.0 0.00 0.00 0.00 78 1012.6
20260906045023 25 0.0 0.0 0.00 0.00 0.00 78 1012.5
20260906044048 25 0.0 0.0 0.00 0.00 0.00 78 1012.5
20260906043056 25 0.0 0.0 0.00 0.00 0.00 78 1012.5
20260906042104 25 0.0 0.0 0.00 0.00 0.00 77 1012.5
20260906041056 25 0.0 0.0 0.00 0.00 0.00 77 1012.4
20260906040130 25 0.0 0.0 0.00 0.00 0.00 76 1012.5
20260906035040 26 0.0 0.0 0.00 0.00 0.00 75 1012.5
20260906034104 26 0.0 0.0 0.00 0.00 0.00 74 1012.4
20260906033112 26 0.0 0.0 0.00 0.00 0.00 74 1012.4
20260906032136 26 0.0 0.0 0.00 0.00 0.00 74 1012.4
20260906031033 26 0.0 0.0 0.00 0.00 0.00 73 1012.1
20260906030048 26 0.0 0.0 0.00 0.00 0.00 73 1012.1
20260906025114 26 0.0 0.0 0.00 0.00 0.00 72 1011.8
20260906024033 27 0.0 0.0 0.00 0.00 0.00 72 1011.7
20260906023056 27 0.0 0.0 0.00 0.00 0.00 70 1011.5
20260906022104 27 0.0 0.0 0.00 0.00 0.00 69 1011.3
20260906021056 28 0.0 0.0 0.00 0.00 0.00 68 1011.2
20260906020104 28 0.0 0.0 0.00 0.00 0.00 65 1011.3
20260906015024 28 0.0 0.0 0.00 0.00 0.00 65 1011.1
20260906014038 29 0.0 0.0 0.00 0.00 0.00 63 1011.0
20260906013112 29 0.0 0.0 0.00 0.00 0.00 62 1010.7
20260906012032 30 0.0 0.0 0.00 0.00 0.00 60 1010.6
20260906011056 31 0.0 0.0 0.00 0.00 0.00 57 1010.7
20260906010120 31 0.0 0.0 0.00 0.00 0.00 54 1010.7
20260906005033 32 0.0 0.0 0.00 0.00 0.00 50 1010.6
20260906004104 33 0.0 0.0 0.00 0.00 0.00 48 1010.8
20260906003024 35 0.0 0.0 0.00 0.00 0.00 44 1010.9
20260906002038 36 168 0.0 1.6 0.00 0.00 0.00 42 1011.1
20260906001056 36 187 3.2 4.8 0.00 0.00 0.00 41 1011.1
20260906000121 37 183 3.2 4.8 0.00 0.00 0.00 39 1011.0
20260905235112 37 197 3.2 8.0 0.00 0.00 0.00 39 1011.0
20260905234032 38 152 1.6 4.8 0.00 0.00 0.00 38 1010.8
20260905233056 38 185 3.2 4.8 0.00 0.00 0.00 38 1010.8
20260905232120 38 167 4.8 8.0 0.00 0.00 0.00 37 1010.8
20260905231025 38 185 4.8 8.0 0.00 0.00 0.00 38 1010.8
20260905230049 38 195 4.8 11.3 0.00 0.00 0.00 37 1010.9
20260905225113 38 127 1.6 3.2 0.00 0.00 0.00 37 1010.9
20260905224120 39 140 1.6 4.8 0.00 0.00 0.00 36 1010.8
20260905223025 39 118 0.0 3.2 0.00 0.00 0.00 37 1011.0
20260905222038 39 139 3.2 8.0 0.00 0.00 0.00 36 1010.9
20260905221113 39 171 3.2 8.0 0.00 0.00 0.00 36 1010.9
20260905220120 39 120 1.6 8.0 0.00 0.00 0.00 37 1011.0
20260905215025 39 199 4.8 8.0 0.00 0.00 0.00 38 1011.1
20260905214038 38 210 4.8 9.7 0.00 0.00 0.00 37 1011.1
20260905213112 39 196 9.7 16.1 0.00 0.00 0.00 38 1011.3
20260905212032 38 210 6.4 14.5 0.00 0.00 0.00 38 1011.4
20260905211034 39 208 8.0 14.5 0.00 0.00 0.00 39 1011.6
20260905210104 39 184 4.8 9.7 0.00 0.00 0.00 39 1011.8
20260905205024 37 177 1.6 8.0 0.00 0.00 0.00 41 1011.9
20260905204038 37 152 3.2 9.7 0.00 0.00 0.00 41 1012.0
20260905203112 38 127 6.4 12.9 0.00 0.00 0.00 39 1012.2
20260905202120 38 129 4.8 16.1 0.00 0.00 0.00 39 1012.3
20260905201033 39 200 6.4 12.9 0.00 0.00 0.00 38 1012.5
20260905200049 39 204 8.0 16.1 0.00 0.00 0.00 39 1012.6
20260905195113 39 154 3.2 9.7 0.00 0.00 0.00 40 1012.5